Tracking 30703 objects as of 12-Jun-2025
HD Live streaming from Space Station
objects crossing your sky now

SL-8 DEB *

Track SL-8 DEB * now!
10-day predictions


NORAD ID: 18519
Int'l Code: 1984-019D
Perigee: 661.6 km
Apogee: 674.3 km
Inclination: 74.0 °
Period: 98.0 minutes
Semi major axis: 7038 km
RCS: 0.0063 m2 (small)
Launch date: February 21, 1984
Source: Commonwealth of Independent States (former USSR) (CIS)
Launch site: PLESETSK MISSILE AND SPACE COMPLEX (PKMTR)

Note: This is SATELLITE DEBRIS
Your satellite tracking list
Your tracking list is empty




NASA's NSSDC Master Catalog

Two Line Element Set (TLE):
1 18519U 84019D   25163.37780110  .00002477  00000-0  41721-3 0  9998
2 18519  74.0435 300.8016 0008980  60.8785 299.3283 14.70086586  7161
Source of the keplerian elements: AFSPC